Вернуться в каталог

DELTA 1 DEB

АктивенUNKNOWN
NORAD 7016·DEBRIS·🇺🇸 United States

Запущен Nov 6, 1973 с Vandenberg Space Force Base

Loading…

Ближайшие Пролёты (ближайшие 24 часа)

TLE

СвежийSource: Space-Track

Эпоха: Sep 13, 2026, 19:28 UTC

1 07016U 73086G   26256.81113449  .00000182  00000-0  37822-2 0  9995
2 07016 101.7028 353.8283 0511160 241.6167 248.2916 11.45464972209565

Отслеживайте DELTA 1 DEB в реальном времени с AllMySat

Download on the App Store